Regional Weather Roundup
Issued by NWS

Home | Current Version | Previous Version | Graphics & Text | Print | Product List | Glossary On
Versions: 1 2 3 4 5 6 7 8 9 10 11 12 13 14 15 16 17 18 19 20 21 22 23 24 25 26 27 28 29 30 31 32 33 34 35 36 37 38 39 40 41 42 43 44 45 46 47 48 49 50
000
ASUS45 KSLC 230810
RWRUT

UTAH REGIONAL WEATHER ROUNDUP
NATIONAL WEATHER SERVICE SALT LAKE CITY UT
200 AM MDT WED JUL 23 2014

UTZ001>011-023>025-230900-

NORTHERN UTAH

CITY           SKY/WX    TMP DP  RH WIND       PRES   REMARKS
HILL AFB       CLEAR     78  33  19 SE14G22   30.14R
LOGAN          NOT AVBL
OGDEN          CLEAR     79  32  18 S12       30.10R
PROVO AIRPORT  CLEAR     73  34  23 S3        30.16S
SALT LAKE CITY PTCLDY    75  41  29 S8        30.09R
VERNAL         CLEAR     71  28  20 NW6       30.21F
WENDOVER       CLEAR     81  25  12 W8        30.07S
HEBER CITY     CLEAR     52  41  66 CALM      30.25S
WEST JORDAN    CLEAR     79  41  25 CALM      30.14R

$$

UTZ012>022-026-027-230900-

SOUTHERN UTAH

CITY           SKY/WX    TMP DP  RH WIND       PRES   REMARKS
BRYCE CANYON   PTCLDY    55  35  47 W9        30.46S
CEDAR CITY     CLEAR     72  33  24 SE8       30.27S
MILFORD        CLEAR     73  32  22 SW12      30.20S
MOAB/CYNLANDS  CLEAR     71  17  12 E3        30.12S
PRICE          CLEAR     71  14  11 N8        30.26F
ST GEORGE      SUNNY     81  28  15 E9        30.06R
KANAB            N/A     70  34  26 N5        30.25S

$$

REGIONAL REPORTS     COLORADO/ARIZONA

CITY           SKY/WX    TMP DP  RH WIND       PRES   REMARKS
CRAIG, CO      CLEAR     47  37  68 N3        30.34S
GRAND JUNCTION PTCLDY    71  26  18 E10       30.19R
RIFLE          CLEAR     66  28  24 CALM      30.28S
MONTROSE       PTCLDY    73  39  29 SE8       30.32R
CORTEZ         CLEAR     78  46  32 SE30G41   30.36S
PAGE, AZ       MOCLDY    87  36  16 W3        30.13S
GRAND CANYON   MOCLDY    58  41  53 CALM      30.38S HAZE
KINGMAN        CLEAR     79  30  16 CALM      30.10S
FLAGSTAFF      CLEAR     57  39  51 CALM      30.42S

$$

REGIONAL REPORTS    NEVADA/IDAHO/WYOMING

CITY           SKY/WX    TMP DP  RH WIND       PRES   REMARKS
LAS VEGAS, NV  CLEAR     90  27  10 S9        29.92S
ELY            CLEAR     63  17  17 S14       30.29S
ELKO           CLEAR     61  36  39 S5        30.14R
POCATELLO, ID  CLEAR     62  42  47 N6        30.07F
BURLEY         CLEAR     61  48  62 CALM      30.04R
EVANSTON, WY   CLEAR     63  35  35 SE9       30.37S
ROCK SPRINGS   CLEAR     70  23  17 SE9       30.35S

$$


USA.gov is the U.S. government's official web portal to all federal, state and local government web resources and services.